Location: Cactus School
(34.5700°N, 118.0931°W)
Time: 07:19:25
(UTC-08:00)

Tiros 1 - Pass Details

Date: 24 November 2019
Orbit: 630 x 664 km, 48.4° (Epoch: 14 December)

Event Time Altitude Azimuth Distance (km) Brightness Sun altitude
Rises 14:11:44 0° 294° (WNW) 2,915 10.7 24.0°
Reaches altitude 10° 14:15:00 10° 317° (NW) 2,007 9.7 23.5°
Maximum altitude 14:17:40 15° 353° (N) 1,698 9.0 23.2°
Drops below altitude 10° 14:20:21 10° 29° (NNE) 2,010 9.2 22.8°
Sets 14:23:37 0° 52° (NE) 2,922 9.9 22.4°
